[[{"header":{"parameterUnit":"m.s-1","parameterCategory":1,"la1":30.2991,"la2":30.254,"lo1":-89.0895,"lo2":-89.0444,"dy":0.0017,"dx":0.0017,"nx":28,"ny":28,"refTime":"2025-02-05T09:00:00:Z","depth":0,"parameterNumber":2,"parameterNumberName":"U-component_of_WINDS"},"data":[0,0,0,0,0,0,0,0,0,0,0,0,0,0,0,0,0,0,0,0,0,0,0,0,0,0,0,0,0,0,0,0,0,0,0,0,0,0,0,0,0,0,0,0,0,0,0,0,0,0,0,0,0,0,0,0,0,0,-1.9394,-1.9395,0,-1.9404,-1.9404,-1.9405,-1.9377,-1.9377,-1.9376,-1.9375,-1.9385,-1.9386,-1.9387,0,0,0,0,0,0,0,0,0,0,0,0,0,-1.9351,-1.9352,-1.9394,-1.9395,-1.9395,-1.9404,-1.9405,-1.9405,-1.9378,-1.9377,-1.9376,-1.9375,-1.9385,-1.9386,-1.9387,0,0,0,0,0,0,0,0,0,0,0,0,0,-1.9367,-1.9353,-1.9394,-1.9382,-1.9381,-1.9404,-1.9405,-1.9405,-1.9378,-1.9377,-1.9375,-1.9374,-1.9384,-1.9386,-1.9387,-1.9422,0,0,-1.9392,-1.9393,0,0,0,0,0,0,0,0,-1.9366,-1.9368,-1.9384,-1.9383,-1.9382,-1.9388,-1.9393,-1.9411,-1.9378,-1.9379,-1.9375,-1.9373,-1.9387,-1.9388,-1.9393,-1.9423,-1.9423,-1.9392,-1.9393,-1.9394,-1.9394,0,0,0,0,0,0,0,-1.9365,-1.9368,-1.9398,-1.9384,-1.9383,-1.9376,-1.9377,-1.9396,-1.939,-1.9379,-1.9377,-1.9379,-1.9386,-1.9392,-1.9393,-1.9423,-1.9392,-1.9394,-1.9394,-1.9395,-1.9481,-1.9482,0,0,0,0,0,0,-1.9365,-1.9367,-1.9398,-1.9399,-1.9371,-1.9378,-1.9379,-1.9388,-1.939,-1.9389,-1.938,-1.9377,-1.9389,-1.9391,-1.9393,-1.9433,-1.9394,-1.9395,-1.9396,-1.948,-1.9481,-1.9483,0,0,0,0,0,0,-1.9365,-1.9368,-1.9398,-1.9382,-1.9385,-1.938,-1.939,-1.9389,-1.9394,-1.939,-1.9389,-1.9386,-1.9389,-1.9391,-1.9415,-1.9433,-1.9396,-1.9397,-1.9478,-1.948,-1.9482,-1.9514,0,0,0,0,0,0,-1.9363,-1.9368,-1.9382,-1.9383,-1.9386,-1.9419,-1.9391,-1.939,-1.9396,-1.9393,-1.9396,-1.9395,-1.9388,-1.9413,-1.9416,-1.9434,-1.9399,-1.9476,-1.9479,-1.9481,-1.9511,-1.9517,-1.9521,0,0,0,0,0,-1.9362,-1.939,-1.9382,-1.9386,-1.9403,-1.9421,-1.9423,-1.9413,-1.9398,-1.9411,-1.9409,-1.9395,-1.9431,-1.9415,-1.9419,-1.9438,-1.9475,-1.9478,-1.9481,-1.9509,-1.9515,-1.9521,0,0,0,0,0,0,-1.9391,-1.939,-1.9381,-1.9411,-1.9416,-1.9416,-1.9432,-1.9421,-1.943,-1.9427,-1.9416,-1.9416,-1.9442,-1.9443,-1.9426,-1.9472,-1.945,-1.9454,-1.947,-1.9476,-1.9481,-1.948,-1.94,0,0,0,0,0,-1.9402,-1.9416,-1.9414,-1.9441,-1.9444,-1.9438,-1.9445,-1.9437,-1.9442,-1.9444,-1.9443,-1.9448,-1.946,-1.9469,-1.948,-1.9512,-1.9511,-1.9526,-1.9532,-1.9536,-1.9539,-1.9554,-1.9561,-1.9492,-1.9492,-1.9492,0,0,-1.9422,-1.9423,-1.9433,-1.9447,-1.9449,-1.9464,-1.9439,-1.9456,-1.9467,-1.9446,-1.9468,-1.9469,-1.9473,-1.9501,-1.9513,-1.9502,-1.9558,-1.954,-1.9543,-1.9544,-1.9558,-1.9565,-1.957,-1.9494,-1.9494,-1.9494,0,0,-1.9467,-1.947,-1.9491,-1.9495,-1.95,-1.9496,-1.9501,-1.9502,-1.9501,-1.9523,-1.9508,-1.9521,-1.9542,-1.9546,-1.955,-1.9597,-1.9584,-1.9601,-1.9627,-1.9642,-1.9648,-1.9652,-1.9667,-1.9673,-1.9604,-1.9604,-1.9604,0,-1.9492,-1.9514,-1.9504,-1.9522,-1.9527,-1.951,-1.9531,-1.9535,-1.9543,-1.9548,-1.9536,-1.9562,-1.9564,-1.9591,-1.9602,-1.9607,-1.9612,-1.96,-1.9648,-1.9652,-1.9656,-1.9671,-1.9676,-1.9606,-1.9606,-1.9606,-1.9606,0,-1.9543,-1.9559,-1.9575,-1.9583,-1.9591,-1.9611,-1.9604,-1.9613,-1.9605,-1.9602,-1.9625,-1.9627,-1.9637,-1.9644,-1.9636,-1.967,-1.9663,-1.965,-1.9628,-1.9665,-1.9678,-1.9683,-1.9609,-1.9608,-1.9608,-1.9607,0,0,-1.9606,-1.9608,-1.9614,-1.9617,-1.9621,-1.9633,-1.9652,-1.9662,-1.9669,-1.9676,-1.969,-1.9709,-1.9697,-1.9702,-1.9695,-1.9709,-1.9743,-1.9693,-1.9693,-1.9701,-1.9779,-1.9787,-1.9794,-1.9735,-1.9736,-1.9737,-1.9778,0,-1.9649,-1.968,-1.9672,-1.9703,-1.9716,-1.97,-1.9716,-1.972,-1.9718,-1.9729,-1.9727,-1.9739,-1.9723,-1.9726,-1.9739,-1.9736,-1.9758,-1.9734,-1.9748,-1.9748,-1.9745,-1.9801,-1.981,-1.9848,-1.9783,-1.9784,-1.9785,0,-1.9703,-1.9711,-1.9743,-1.9744,-1.9749,-1.9764,-1.9772,-1.9783,-1.9787,-1.9785,-1.9791,-1.9781,-1.9798,-1.9778,-1.9801,-1.9785,-1.979,-1.979,-1.9791,-1.9791,-1.9767,-1.98,-1.986,-1.9865,-1.9793,-1.9792,-1.9791,0,-1.9743,-1.9762,-1.9783,-1.9787,-1.9789,-1.9799,-1.9801,-1.9804,-1.981,-1.9818,-1.9821,-1.9831,-1.9836,-1.9844,-1.9837,-1.9823,-1.9861,-1.984,-1.9859,-1.9859,-1.9866,-1.9865,-1.9926,-1.9873,-1.9873,-1.9873,-1.9872,0,-1.979,-1.981,-1.9801,-1.9814,-1.9836,-1.9827,-1.9849,-1.9848,-1.9851,-1.9863,-1.985,-1.9862,-1.9853,-1.9864,-1.9859,-1.9878,-1.9881,-1.9879,-1.9877,-1.9879,-1.9879,-1.9881,-1.9878,-1.9874,-1.9874,-1.9873,-1.9873,0,-1.9838,-1.9833,-1.9855,-1.9855,-1.9856,-1.9872,-1.9872,-1.9884,-1.9881,-1.9897,-1.99,-1.9895,-1.9907,-1.9901,-1.9914,-1.9911,-1.9936,-1.9931,-1.9934,-1.9932,-1.995,-1.9948,-2.0013,-2.0021,-1.9964,-1.9965,-1.9965,0,-1.9868,-1.9883,-1.9885,-1.9892,-1.9894,-1.9906,-1.9913,-1.9904,-1.9911,-1.9917,-1.9928,-1.9939,-1.9947,-1.9968,-1.9965,-1.9975,-1.9969,-1.9991,-1.997,-1.9972,-1.9967,-1.9966,-1.9967,-1.9995,-1.9996,-1.9996,-1.9997,0,-1.9921,-1.9917,-1.9927,-1.9936,-1.9944,-1.9951,-1.9956,-1.9963,-1.9955,-1.9964,-1.9976,-1.9982,-1.9995,-2.0006,-2.0014,-2.0015,-2.0004,-2.0004,-2.0008,-2.0009,-2.001,-2.0008,-1.9944,-2.0002,-2.0001,-2.0001,-2.0,-2.0,-1.9959,-1.9971,-1.9974,-1.9985,-1.9989,-1.9994,-2.0005,-2.0003,-2.0013,-2.0023,-2.0017,-2.0031,-2.0035,-2.0045,-2.0047,-2.0058,-2.0049,-2.0056,-2.0057,-2.0058,-2.006,-2.001,-2.006,-2.0059,-2.0059,-2.0059,-2.0059,0,-2.001,-2.0011,-2.0021,-2.0029,-2.0038,-2.0027,-2.0033,-2.0041,-2.0053,-2.0057,-2.0065,-2.0079,-2.0089,-2.0088,-2.0097,-2.0106,-2.0101,-2.0108,-2.0107,-2.0107,-2.0068,-2.0063,-2.0112,-2.0112,-2.0112,-2.0112,-2.0112,-2.0112,-2.0037,-2.0056,-2.0053,-2.0074,-2.0075,-2.0088,-2.0092,-2.0097,-2.01,-2.0115,-2.0124,-2.0123,-2.0125,-2.0134,-2.0143,-2.0142,-2.0145,-2.0154,-2.0152,-2.0115,-2.011,-2.0105,-2.0099,-2.0156,-2.0156,-2.0189,-2.0189,-2.019]},{"header":{"parameterUnit":"m.s-1","parameterCategory":1,"la1":30.2991,"la2":30.254,"lo1":-89.0895,"lo2":-89.0444,"dy":0.0017,"dx":0.0017,"nx":28,"ny":28,"refTime":"2025-02-05T09:00:00:Z","depth":0,"parameterNumber":3,"parameterNumberName":"V-component_of_WINDS"},"data":[0,0,0,0,0,0,0,0,0,0,0,0,0,0,0,0,0,0,0,0,0,0,0,0,0,0,0,0,0,0,0,0,0,0,0,0,0,0,0,0,0,0,0,0,0,0,0,0,0,0,0,0,0,0,0,0,0,0,1.8261,1.8262,0,1.8284,1.8284,1.8284,1.8283,1.8283,1.8282,1.8282,1.8303,1.8304,1.8305,0,0,0,0,0,0,0,0,0,0,0,0,0,1.8218,1.8219,1.8261,1.8262,1.8262,1.8283,1.8284,1.8284,1.8283,1.8283,1.8282,1.8282,1.8303,1.8304,1.8305,0,0,0,0,0,0,0,0,0,0,0,0,0,1.8238,1.8219,1.8261,1.8264,1.8265,1.8283,1.8284,1.8284,1.8283,1.8283,1.8282,1.8282,1.8303,1.8304,1.8305,1.8322,0,0,1.8309,1.831,0,0,0,0,0,0,0,0,1.8237,1.824,1.8263,1.8264,1.8264,1.828,1.8276,1.8297,1.8283,1.8276,1.8282,1.8281,1.8296,1.8298,1.8303,1.8323,1.8324,1.8309,1.831,1.831,1.8311,0,0,0,0,0,0,0,1.8236,1.8239,1.827,1.8264,1.8264,1.8264,1.8266,1.828,1.8288,1.8277,1.8277,1.8279,1.8296,1.8301,1.8303,1.8325,1.8309,1.831,1.8311,1.8312,1.8362,1.8363,0,0,0,0,0,0,1.8234,1.8238,1.8269,1.8271,1.8249,1.8265,1.8268,1.8275,1.8288,1.829,1.828,1.8279,1.83,1.8302,1.8304,1.8326,1.831,1.8312,1.8312,1.8362,1.8363,1.8363,0,0,0,0,0,0,1.8233,1.8237,1.8269,1.8254,1.8258,1.8267,1.8275,1.8276,1.8282,1.829,1.8292,1.8284,1.8299,1.8302,1.8318,1.8327,1.8312,1.8313,1.8361,1.8362,1.8363,1.8371,0,0,0,0,0,0,1.8232,1.8236,1.8243,1.8254,1.8259,1.8283,1.8276,1.8277,1.8284,1.8284,1.8295,1.8296,1.8299,1.8316,1.832,1.8329,1.8314,1.836,1.8362,1.8363,1.837,1.8372,1.8373,0,0,0,0,0,1.823,1.8243,1.8243,1.8247,1.8268,1.8283,1.8286,1.8289,1.8285,1.8292,1.8298,1.8296,1.8325,1.8318,1.8322,1.8331,1.836,1.8361,1.8363,1.8369,1.8371,1.8373,0,0,0,0,0,0,1.8232,1.8245,1.8245,1.8262,1.8272,1.8283,1.8291,1.8292,1.8302,1.8301,1.8305,1.8307,1.8324,1.8329,1.832,1.8349,1.8342,1.8344,1.8346,1.8348,1.835,1.8349,1.8315,0,0,0,0,0,1.8234,1.8246,1.8257,1.8271,1.8276,1.8283,1.829,1.8292,1.8302,1.8306,1.8312,1.8322,1.8333,1.8341,1.8352,1.837,1.8373,1.8379,1.838,1.8382,1.8384,1.8396,1.8399,1.8367,1.8367,1.8367,0,0,1.8239,1.8248,1.8255,1.8272,1.8279,1.8292,1.8286,1.8299,1.8308,1.8307,1.8324,1.8329,1.834,1.8358,1.8366,1.8362,1.8393,1.8384,1.8385,1.8386,1.8397,1.84,1.8403,1.8368,1.8368,1.8368,0,0,1.8255,1.8262,1.8276,1.8284,1.8296,1.8301,1.8304,1.8316,1.832,1.8336,1.8336,1.8347,1.8367,1.8375,1.8382,1.8403,1.8402,1.8406,1.8416,1.8427,1.843,1.8432,1.8441,1.8444,1.8408,1.8408,1.8408,0,1.826,1.8279,1.8283,1.8297,1.8304,1.8305,1.8319,1.8327,1.8341,1.8347,1.8343,1.8369,1.8376,1.8396,1.8402,1.8407,1.8411,1.8405,1.8429,1.8431,1.8434,1.8442,1.8445,1.8408,1.8408,1.8408,1.8408,0,1.8284,1.8298,1.8307,1.8323,1.8332,1.8345,1.8352,1.8361,1.8362,1.8368,1.8385,1.8394,1.8408,1.8413,1.8414,1.8434,1.8432,1.8428,1.8421,1.8437,1.8445,1.8448,1.8409,1.8409,1.8409,1.8409,0,0,1.8301,1.832,1.8324,1.8332,1.8346,1.8356,1.837,1.8384,1.8392,1.8402,1.8415,1.8433,1.843,1.8438,1.844,1.845,1.8468,1.8446,1.8446,1.8451,1.8492,1.8496,1.8499,1.8467,1.8468,1.8468,1.8492,0,1.8319,1.8345,1.835,1.8373,1.8386,1.8387,1.84,1.841,1.8416,1.8428,1.8434,1.8447,1.8442,1.8447,1.8457,1.8464,1.8476,1.8462,1.848,1.848,1.8478,1.8503,1.8506,1.8528,1.8495,1.8495,1.8496,0,1.8344,1.8356,1.838,1.8395,1.84,1.8411,1.8426,1.8437,1.8449,1.8453,1.8462,1.8464,1.8479,1.8471,1.8493,1.8483,1.8491,1.8495,1.8496,1.8499,1.849,1.8507,1.8535,1.8538,1.85,1.85,1.85,0,1.8355,1.8378,1.8396,1.8402,1.8419,1.8427,1.8434,1.8446,1.8454,1.8467,1.8473,1.8487,1.8494,1.8505,1.8511,1.8504,1.8533,1.8524,1.8537,1.8537,1.8543,1.8543,1.8573,1.8546,1.8546,1.8546,1.8546,0,1.8375,1.839,1.8402,1.8413,1.843,1.8436,1.8453,1.846,1.8471,1.8483,1.8485,1.8497,1.8503,1.8516,1.852,1.8539,1.8542,1.8546,1.8547,1.8546,1.8546,1.8552,1.8551,1.8547,1.8547,1.8547,1.8546,0,1.8391,1.8399,1.8419,1.8433,1.8438,1.845,1.8462,1.8474,1.848,1.8496,1.85,1.851,1.8526,1.8532,1.8551,1.8554,1.8575,1.8575,1.8572,1.8572,1.8585,1.8584,1.8621,1.8626,1.8595,1.8595,1.8595,0,1.8404,1.8416,1.8432,1.8441,1.8449,1.8464,1.8473,1.848,1.849,1.8505,1.8515,1.8531,1.8544,1.8569,1.8577,1.8592,1.8593,1.8605,1.8595,1.8594,1.8594,1.8594,1.8596,1.8606,1.8607,1.8607,1.8607,0,1.8426,1.843,1.8444,1.846,1.8472,1.8484,1.8496,1.8504,1.8512,1.8523,1.854,1.855,1.8571,1.8587,1.8602,1.861,1.861,1.861,1.8614,1.8614,1.8612,1.8615,1.8578,1.8609,1.8609,1.8609,1.8609,1.8609,1.8441,1.8453,1.8467,1.8483,1.8493,1.8505,1.8517,1.8526,1.854,1.8557,1.856,1.8578,1.8591,1.8613,1.8621,1.8635,1.8632,1.8637,1.8639,1.864,1.8642,1.8609,1.8638,1.8638,1.8638,1.8638,1.8638,0,1.8465,1.8475,1.8489,1.8508,1.852,1.8521,1.8535,1.8546,1.8562,1.8574,1.8588,1.8608,1.8624,1.8634,1.8651,1.866,1.8661,1.8664,1.8664,1.8666,1.8643,1.8639,1.8664,1.8664,1.8664,1.8664,1.8664,1.8664,1.8479,1.8499,1.8505,1.853,1.854,1.8558,1.8567,1.8578,1.8588,1.8611,1.8625,1.8632,1.8644,1.8661,1.8676,1.8679,1.8686,1.8689,1.8692,1.867,1.8668,1.8665,1.8661,1.869,1.8691,1.8714,1.8715,1.8715]}]]